TimeCST,TemperatureF,Dew PointF,Humidity,Sea Level PressureIn,VisibilityMPH,Wind Direction,Wind SpeedMPH,Gust SpeedMPH,PrecipitationIn,Events,Conditions,WindDirDegrees,DateUTC
12:53 AM,27.0,25.0,92,30.43,10.0,Calm,Calm,-,N/A,,Clear,0,2013-11-14 06:53:00
1:53 AM,28.0,25.0,88,30.43,10.0,Calm,Calm,-,N/A,,Clear,0,2013-11-14 07:53:00
2:53 AM,27.0,25.0,92,30.42,10.0,Calm,Calm,-,N/A,,Clear,0,2013-11-14 08:53:00
3:53 AM,26.1,24.1,92,30.41,10.0,Calm,Calm,-,N/A,,Clear,0,2013-11-14 09:53:00
4:53 AM,25.0,23.0,92,30.40,10.0,NW,3.5,-,N/A,,Clear,310,2013-11-14 10:53:00
5:53 AM,24.1,21.9,91,30.39,10.0,Calm,Calm,-,N/A,,Clear,0,2013-11-14 11:53:00
6:53 AM,25.0,21.9,88,30.39,10.0,Calm,Calm,-,N/A,,Clear,0,2013-11-14 12:53:00
7:53 AM,30.0,27.0,88,30.40,10.0,Calm,Calm,-,N/A,,Clear,0,2013-11-14 13:53:00
8:53 AM,39.0,28.9,67,30.40,10.0,SSE,5.8,-,N/A,,Clear,160,2013-11-14 14:53:00
9:53 AM,46.0,27.0,47,30.38,10.0,SSE,8.1,-,N/A,,Clear,160,2013-11-14 15:53:00
10:53 AM,51.1,24.1,35,30.35,10.0,SE,8.1,-,N/A,,Clear,140,2013-11-14 16:53:00
11:53 AM,53.1,23.0,31,30.30,10.0,ESE,6.9,-,N/A,,Clear,120,2013-11-14 17:53:00
12:53 PM,55.0,24.1,30,30.26,10.0,Variable,4.6,-,N/A,,Clear,0,2013-11-14 18:53:00
1:53 PM,57.0,24.1,28,30.22,10.0,Variable,5.8,-,N/A,,Clear,0,2013-11-14 19:53:00
2:53 PM,57.0,25.0,29,30.21,10.0,ESE,6.9,-,N/A,,Clear,120,2013-11-14 20:53:00
3:53 PM,55.0,25.0,31,30.19,10.0,SE,3.5,-,N/A,,Clear,140,2013-11-14 21:53:00
4:53 PM,48.9,37.0,64,30.18,10.0,Calm,Calm,-,N/A,,Clear,0,2013-11-14 22:53:00
5:53 PM,44.1,36.0,73,30.17,10.0,Calm,Calm,-,N/A,,Clear,0,2013-11-14 23:53:00
6:53 PM,42.1,34.0,73,30.16,10.0,Calm,Calm,-,N/A,,Clear,0,2013-11-15 00:53:00
7:53 PM,39.9,35.1,83,30.16,10.0,Calm,Calm,-,N/A,,Clear,0,2013-11-15 01:53:00
8:53 PM,37.0,35.1,93,30.18,10.0,Calm,Calm,-,N/A,,Clear,0,2013-11-15 02:53:00
9:53 PM,37.0,34.0,89,30.17,10.0,Calm,Calm,-,N/A,,Clear,0,2013-11-15 03:53:00
10:53 PM,37.9,35.1,89,30.15,10.0,Calm,Calm,-,N/A,,Clear,0,2013-11-15 04:53:00
11:53 PM,37.9,35.1,89,30.12,10.0,Calm,Calm,-,N/A,,Partly Cloudy,0,2013-11-15 05:53:00